Laguepe — 9HAI9 — position and weather

sailwx.info

Track history (hours):
 
Tides and Currents Weather Stations Pressure Air Temp Water Temp Dewpoint Dewpoint Depression Visibility Wind Speed Wind Dir Waves Ship Positions

Laguepe

Last reported at 2014-Sep-02 07:24 UTC. Time now 2014-Sep-02 23:50 UTC.
Position N 42°60' E 009°00'.

Length 81 m; draft 2.8 m.

Type: Cargo ship. MMSI: 256681000.

Date/timePositionNaut miles runAvg speedWind from/ knotsBaromVisibWave heightAir tempDewpointWater temp
2014-Sep-02 07:24N 42°60' E 009°00'26 7.9
2014-Sep-02 04:05N 42°55' E 008°25'4 8.0
2014-Sep-02 03:32N 42°54' E 008°19'8 7.7
2014-Sep-02 02:31N 42°52' E 008°09'34 7.9
2014-Sep-01 22:16N 42°45' E 007°24'7 8.0
2014-Sep-01 21:23N 42°44' E 007°15'8 8.4
2014-Sep-01 20:28N 42°43' E 007°04'8 8.4
2014-Sep-01 19:33N 42°41' E 006°54'9 8.7
2014-Sep-01 18:31N 42°39' E 006°42'9 8.7
2014-Sep-01 17:31N 42°37' E 006°30'8 7.6
2014-Sep-01 16:30N 42°44' E 006°25'7 7.6
2014-Sep-01 15:33N 42°51' E 006°24'7 6.6
2014-Sep-01 14:30N 42°58' E 006°21'7 7.4
2014-Sep-01 13:29N 42°58' E 006°11'8 7.4
2014-Sep-01 12:28N 42°60' E 006°01'7 8.0
2014-Sep-01 11:34N 43°01' E 005°52'9 8.5
2014-Sep-01 10:31N 43°04' E 005°40'16 8.4
2014-Sep-01 08:32N 43°10' E 005°19'8 8.3
2014-Sep-01 07:31N 43°15' E 005°09'8 8.5
2014-Sep-01 06:33N 43°19' E 004°60'7 7.5
2014-Sep-01 05:34N 43°23' E 004°51'2 2.1
2014-Sep-01 04:33N 43°23' E 004°48'0 0.1
2014-Sep-01 03:32N 43°23' E 004°48'0 0.0
2014-Sep-01 02:23N 43°23' E 004°48'0 0.0
2014-Sep-01 01:26N 43°23' E 004°48'0 0.0
2014-Sep-01 00:23N 43°23' E 004°48'0 0.0
2014-Aug-31 23:29N 43°23' E 004°48'0 0.0
2014-Aug-31 22:29N 43°23' E 004°48'0 0.0
2014-Aug-31 21:29N 43°23' E 004°48'0 0.0
2014-Aug-31 20:23N 43°23' E 004°48'0 0.0
2014-Aug-31 19:23N 43°23' E 004°48'0 0.0
2014-Aug-31 18:23N 43°23' E 004°48'0 0.0
2014-Aug-31 17:32N 43°23' E 004°48'0 0.0
2014-Aug-31 16:29N 43°23' E 004°48'0 0.0
2014-Aug-31 15:29N 43°23' E 004°48'0 0.0
2014-Aug-31 14:29N 43°23' E 004°48'0 0.0
2014-Aug-31 13:29N 43°23' E 004°48'0 0.0
2014-Aug-31 12:26N 43°23' E 004°48'  
2014-Aug-27 21:32N 43°23' E 004°48'1 0.8
2014-Aug-27 20:33N 43°23' E 004°49'7 7.0
2014-Aug-27 19:33N 43°21' E 004°58'8 7.5
2014-Aug-27 18:34N 43°16' E 005°07'8 7.9
2014-Aug-27 17:34N 43°12' E 005°16'17 8.0
2014-Aug-27 15:25N 43°05' E 005°37'8 7.8
2014-Aug-27 14:27N 43°02' E 005°47'6 7.2
2014-Aug-27 13:33N 43°01' E 005°55'7 7.4
2014-Aug-27 12:32N 42°59' E 006°05'7 7.5
2014-Aug-27 11:33N 42°57' E 006°15'8 7.9
2014-Aug-27 10:32N 42°57' E 006°26'9 8.8
2014-Aug-27 09:33N 43°02' E 006°36'9 8.9
2014-Aug-27 08:33N 43°07' E 006°46'9 8.8
2014-Aug-27 07:33N 43°11' E 006°57'8 8.4
2014-Aug-27 06:33N 43°16' E 007°06'9 7.8
2014-Aug-27 05:24N 43°21' E 007°16'6 6.7
2014-Aug-27 04:28N 43°25' E 007°23'6 6.3
2014-Aug-27 03:33N 43°28' E 007°30'7 6.5
2014-Aug-27 02:30N 43°32' E 007°38'47 6.6
2014-Aug-26 19:22N 44°04' E 008°25'5 6.5
2014-Aug-26 18:33N 44°09' E 008°29'9 6.7
2014-Aug-26 17:16N 44°17' E 008°32'2 0.6
2014-Aug-26 13:29N 44°19' E 008°30'2 0.1
2014-Aug-25 15:33N 44°18' E 008°32'9 7.4
2014-Aug-25 14:24N 44°09' E 008°29'16 8.2
2014-Aug-25 12:24N 43°55' E 008°18'10 7.4
2014-Aug-25 11:05N 43°48' E 008°09'42 7.2
2014-Aug-25 05:19N 43°24' E 007°22'9 7.2
2014-Aug-25 04:05N 43°19' E 007°12'5 7.1
2014-Aug-25 03:20N 43°16' E 007°05'6 7.0
2014-Aug-25 02:33N 43°13' E 006°59'7 7.0
2014-Aug-25 01:33N 43°09' E 006°51'7 7.2
2014-Aug-25 00:33N 43°05' E 006°43'7 7.4
2014-Aug-24 23:33N 43°01' E 006°35'7 7.2
2014-Aug-24 22:34N 42°57' E 006°27'7 7.4
2014-Aug-24 21:33N 42°57' E 006°17'8 8.4
2014-Aug-24 20:33N 42°58' E 006°06'8 8.3
2014-Aug-24 19:33N 43°01' E 005°55'9 8.6
2014-Aug-24 18:33N 43°03' E 005°43'19 8.6
2014-Aug-24 16:20N 43°11' E 005°19'7 8.7
2014-Aug-24 15:32N 43°14' E 005°11'8 8.7
2014-Aug-24 14:33N 43°18' E 005°01'7 7.4
2014-Aug-24 13:33N 43°24' E 004°54'4 3.6
2014-Aug-24 12:33N 43°23' E 004°49'  
Track history (hours):
 
Tides and Currents Weather Stations Pressure Air Temp Water Temp Dewpoint Dewpoint Depression Visibility Wind Speed Wind Dir Waves Ship Positions

Laguepe

Last reported at 2014-Sep-02 07:24 UTC. Time now 2014-Sep-02 23:50 UTC.
Position N 42°60' E 009°00'.

Length 81 m; draft 2.8 m.

Type: Cargo ship. MMSI: 256681000.

Date/timePositionNaut miles runAvg speedWind from/ knotsBaromVisibWave heightAir tempDewpointWater temp
2014-Sep-02 07:24N 42°60' E 009°00'26 7.9
2014-Sep-02 04:05N 42°55' E 008°25'4 8.0
2014-Sep-02 03:32N 42°54' E 008°19'8 7.7
2014-Sep-02 02:31N 42°52' E 008°09'34 7.9
2014-Sep-01 22:16N 42°45' E 007°24'7 8.0
2014-Sep-01 21:23N 42°44' E 007°15'8 8.4
2014-Sep-01 20:28N 42°43' E 007°04'8 8.4
2014-Sep-01 19:33N 42°41' E 006°54'9 8.7
2014-Sep-01 18:31N 42°39' E 006°42'9 8.7
2014-Sep-01 17:31N 42°37' E 006°30'8 7.6
2014-Sep-01 16:30N 42°44' E 006°25'7 7.6
2014-Sep-01 15:33N 42°51' E 006°24'7 6.6
2014-Sep-01 14:30N 42°58' E 006°21'7 7.4
2014-Sep-01 13:29N 42°58' E 006°11'8 7.4
2014-Sep-01 12:28N 42°60' E 006°01'7 8.0
2014-Sep-01 11:34N 43°01' E 005°52'9 8.5
2014-Sep-01 10:31N 43°04' E 005°40'16 8.4
2014-Sep-01 08:32N 43°10' E 005°19'8 8.3
2014-Sep-01 07:31N 43°15' E 005°09'8 8.5
2014-Sep-01 06:33N 43°19' E 004°60'7 7.5
2014-Sep-01 05:34N 43°23' E 004°51'2 2.1
2014-Sep-01 04:33N 43°23' E 004°48'0 0.1
2014-Sep-01 03:32N 43°23' E 004°48'0 0.0
2014-Sep-01 02:23N 43°23' E 004°48'0 0.0
2014-Sep-01 01:26N 43°23' E 004°48'0 0.0
2014-Sep-01 00:23N 43°23' E 004°48'0 0.0
2014-Aug-31 23:29N 43°23' E 004°48'0 0.0
2014-Aug-31 22:29N 43°23' E 004°48'0 0.0
2014-Aug-31 21:29N 43°23' E 004°48'0 0.0
2014-Aug-31 20:23N 43°23' E 004°48'0 0.0
2014-Aug-31 19:23N 43°23' E 004°48'0 0.0
2014-Aug-31 18:23N 43°23' E 004°48'0 0.0
2014-Aug-31 17:32N 43°23' E 004°48'0 0.0
2014-Aug-31 16:29N 43°23' E 004°48'0 0.0
2014-Aug-31 15:29N 43°23' E 004°48'0 0.0
2014-Aug-31 14:29N 43°23' E 004°48'0 0.0
2014-Aug-31 13:29N 43°23' E 004°48'0 0.0
2014-Aug-31 12:26N 43°23' E 004°48'  
2014-Aug-27 21:32N 43°23' E 004°48'1 0.8
2014-Aug-27 20:33N 43°23' E 004°49'7 7.0
2014-Aug-27 19:33N 43°21' E 004°58'8 7.5
2014-Aug-27 18:34N 43°16' E 005°07'8 7.9
2014-Aug-27 17:34N 43°12' E 005°16'17 8.0
2014-Aug-27 15:25N 43°05' E 005°37'8 7.8
2014-Aug-27 14:27N 43°02' E 005°47'6 7.2
2014-Aug-27 13:33N 43°01' E 005°55'7 7.4
2014-Aug-27 12:32N 42°59' E 006°05'7 7.5
2014-Aug-27 11:33N 42°57' E 006°15'8 7.9
2014-Aug-27 10:32N 42°57' E 006°26'9 8.8
2014-Aug-27 09:33N 43°02' E 006°36'9 8.9
2014-Aug-27 08:33N 43°07' E 006°46'9 8.8
2014-Aug-27 07:33N 43°11' E 006°57'8 8.4
2014-Aug-27 06:33N 43°16' E 007°06'9 7.8
2014-Aug-27 05:24N 43°21' E 007°16'6 6.7
2014-Aug-27 04:28N 43°25' E 007°23'6 6.3
2014-Aug-27 03:33N 43°28' E 007°30'7 6.5
2014-Aug-27 02:30N 43°32' E 007°38'47 6.6
2014-Aug-26 19:22N 44°04' E 008°25'5 6.5
2014-Aug-26 18:33N 44°09' E 008°29'9 6.7
2014-Aug-26 17:16N 44°17' E 008°32'2 0.6
2014-Aug-26 13:29N 44°19' E 008°30'2 0.1
2014-Aug-25 15:33N 44°18' E 008°32'9 7.4
2014-Aug-25 14:24N 44°09' E 008°29'16 8.2
2014-Aug-25 12:24N 43°55' E 008°18'10 7.4
2014-Aug-25 11:05N 43°48' E 008°09'42 7.2
2014-Aug-25 05:19N 43°24' E 007°22'9 7.2
2014-Aug-25 04:05N 43°19' E 007°12'5 7.1
2014-Aug-25 03:20N 43°16' E 007°05'6 7.0
2014-Aug-25 02:33N 43°13' E 006°59'7 7.0
2014-Aug-25 01:33N 43°09' E 006°51'7 7.2
2014-Aug-25 00:33N 43°05' E 006°43'7 7.4
2014-Aug-24 23:33N 43°01' E 006°35'7 7.2
2014-Aug-24 22:34N 42°57' E 006°27'7 7.4
2014-Aug-24 21:33N 42°57' E 006°17'8 8.4
2014-Aug-24 20:33N 42°58' E 006°06'8 8.3
2014-Aug-24 19:33N 43°01' E 005°55'9 8.6
2014-Aug-24 18:33N 43°03' E 005°43'19 8.6
2014-Aug-24 16:20N 43°11' E 005°19'7 8.7
2014-Aug-24 15:32N 43°14' E 005°11'8 8.7
2014-Aug-24 14:33N 43°18' E 005°01'7 7.4
2014-Aug-24 13:33N 43°24' E 004°54'4 3.6
2014-Aug-24 12:33N 43°23' E 004°49'  

Dump ship's entire track history